| time (UTC) | temp F | wind direction | speed knots | gust knots | rain 1hr in | rain 24hr in | rain mn in | humidity % | barometer mb |
| 20260508140032 | 49 | 167 | 0.0 | 3.5 | 0.00 | 0.00 | 0.00 | 81 | 1018.8 |
| 20260508134530 | 48 | 211 | 0.9 | 3.5 | 0.00 | 0.00 | 0.00 | 82 | 1018.7 |
| 20260508133029 | 47 | 188 | 1.7 | 3.5 | 0.00 | 0.00 | 0.00 | 82 | 1018.5 |
| 20260508130031 | 45 | 189 | 1.7 | 3.5 | 0.00 | 0.00 | 0.00 | 84 | 1018.2 |
| 20260508124610 | 44 | 198 | 0.0 | 3.5 | 0.00 | 0.00 | 0.00 | 84 | 1018.2 |
| 20260508123041 | 44 | 190 | 0.0 | 2.6 | 0.00 | 0.00 | 0.00 | 83 | 1018.1 |
| 20260508121529 | 44 | 180 | 0.0 | 1.7 | 0.00 | 0.00 | 0.00 | 83 | 1018.1 |
| 20260508120031 | 44 | 199 | 0.9 | 3.5 | 0.00 | 0.00 | 0.00 | 83 | 1018.0 |
| 20260508113107 | 44 | 180 | 0.9 | 2.6 | 0.00 | 0.00 | 0.00 | 81 | 1017.8 |
| 20260508111538 | 44 | 183 | 1.7 | 3.5 | 0.00 | 0.00 | 0.00 | 81 | 1017.7 |
| 20260508110039 | 44 | 180 | 0.9 | 3.5 | 0.00 | 0.00 | 0.00 | 81 | 1017.6 |
| 20260508104529 | 43 | 188 | 1.7 | 4.3 | 0.00 | 0.00 | 0.00 | 81 | 1017.7 |
| 20260508103030 | 43 | 189 | 1.7 | 4.3 | 0.00 | 0.00 | 0.00 | 80 | 1017.7 |
| 20260508101607 | 43 | 180 | 0.9 | 4.3 | 0.00 | 0.00 | 0.00 | 79 | 1017.7 |
| 20260508100029 | 43 | 182 | 0.9 | 3.5 | 0.00 | 0.00 | 0.00 | 79 | 1017.7 |
| 20260508094645 | 43 | 180 | 0.9 | 3.5 | 0.00 | 0.00 | 0.00 | 79 | 1017.6 |
| 20260508093028 | 43 | 180 | 1.7 | 4.3 | 0.00 | 0.00 | 0.00 | 78 | 1017.5 |
| 20260508091607 | 44 | 189 | 1.7 | 3.5 | 0.00 | 0.00 | 0.00 | 77 | 1017.5 |
| 20260508090030 | 44 | 187 | 1.7 | 3.5 | 0.00 | 0.00 | 0.00 | 76 | 1017.5 |
| 20260508084532 | 46 | 183 | 0.9 | 3.5 | 0.00 | 0.00 | 0.00 | 74 | 1017.5 |
| 20260508083106 | 46 | 192 | 0.9 | 3.5 | 0.00 | 0.00 | 0.00 | 74 | 1017.5 |
| 20260508081530 | 46 | 202 | 1.7 | 3.5 | 0.00 | 0.00 | 0.00 | 73 | 1017.5 |
| 20260508080032 | 46 | 186 | 1.7 | 2.6 | 0.00 | 0.00 | 0.00 | 72 | 1017.4 |
| 20260508074533 | 46 | 182 | 1.7 | 3.5 | 0.00 | 0.00 | 0.00 | 70 | 1017.5 |
| 20260508073033 | 46 | 192 | 0.9 | 4.3 | 0.00 | 0.00 | 0.00 | 70 | 1017.5 |
| 20260508064530 | 48 | 169 | 0.9 | 3.5 | 0.00 | 0.00 | 0.00 | 63 | 1017.4 |
| 20260508063030 | 48 | 135 | 0.0 | 0.0 | 0.00 | 0.00 | 0.00 | 61 | 1017.4 |
| 20260508061530 | 49 | 351 | 0.9 | 4.3 | 0.00 | 0.00 | 0.00 | 59 | 1017.4 |
| 20260508060030 | 51 | 315 | 1.7 | 6.1 | 0.00 | 0.00 | 0.00 | 55 | 1017.4 |
| 20260508054531 | 51 | 180 | 3.5 | 5.2 | 0.00 | 0.00 | 0.00 | 53 | 1017.4 |
| 20260508051530 | 52 | 187 | 2.6 | 6.1 | 0.00 | 0.00 | 0.00 | 50 | 1017.5 |
| 20260508050030 | 51 | 180 | 4.3 | 6.1 | 0.00 | 0.00 | 0.00 | 50 | 1017.5 |
| 20260508044607 | 50 | 180 | 4.3 | 6.1 | 0.00 | 0.00 | 0.00 | 52 | 1017.4 |
| 20260508043029 | 50 | 180 | 2.6 | 5.2 | 0.00 | 0.00 | 0.00 | 52 | 1017.3 |
| 20260508041531 | 51 | 185 | 2.6 | 4.3 | 0.00 | 0.00 | 0.00 | 51 | 1017.3 |
| 20260508040031 | 53 | 189 | 1.7 | 4.3 | 0.00 | 0.00 | 0.00 | 47 | 1017.1 |
| 20260508034606 | 55 | 202 | 0.9 | 2.6 | 0.00 | 0.00 | 0.00 | 41 | 1017.0 |
| 20260508033032 | 57 | 191 | 1.7 | 3.5 | 0.00 | 0.00 | 0.00 | 39 | 1016.8 |
| 20260508031532 | 59 | 202 | 0.9 | 3.5 | 0.00 | 0.00 | 0.00 | 36 | 1016.7 |
| 20260508030033 | 61 | 194 | 0.9 | 3.5 | 0.00 | 0.00 | 0.00 | 31 | 1016.6 |
| 20260508024531 | 63 | 181 | 2.6 | 8.7 | 0.00 | 0.00 | 0.00 | 28 | 1016.5 |
| 20260508023029 | 65 | 183 | 2.6 | 8.7 | 0.00 | 0.00 | 0.00 | 26 | 1016.4 |
| 20260508021529 | 65 | 188 | 2.6 | 10.4 | 0.00 | 0.00 | 0.00 | 26 | 1016.2 |
| 20260508013031 | 69 | 202 | 0.9 | 5.2 | 0.00 | 0.00 | 0.00 | 24 | 1016.1 |
| 20260508011533 | 69 | 187 | 1.7 | 8.7 | 0.00 | 0.00 | 0.00 | 23 | 1016.3 |
| 20260508010031 | 69 | 255 | 4.3 | 12.2 | 0.00 | 0.00 | 0.00 | 23 | 1016.3 |
| 20260508004528 | 70 | 331 | 1.7 | 7.0 | 0.00 | 0.00 | 0.00 | 23 | 1016.2 |
| 20260508003030 | 71 | 13 | 0.9 | 11.3 | 0.00 | 0.00 | 0.00 | 23 | 1016.2 |
| 20260508000034 | 71 | 195 | 4.3 | 14.8 | 0.00 | 0.00 | 0.00 | 23 | 1016.0 |
| 20260507234534 | 72 | 288 | 2.6 | 13.0 | 0.00 | 0.00 | 0.00 | 26 | 1016.0 |
| 20260507233031 | 71 | 263 | 3.5 | 13.9 | 0.00 | 0.00 | 0.00 | 26 | 1016.1 |
| 20260507231607 | 71 | 200 | 6.1 | 13.9 | 0.00 | 0.00 | 0.00 | 27 | 1016.3 |
| 20260507224529 | 72 | 201 | 5.2 | 17.4 | 0.00 | 0.00 | 0.00 | 28 | 1016.5 |
| 20260507223106 | 73 | 329 | 3.5 | 12.2 | 0.00 | 0.00 | 0.00 | 29 | 1016.6 |
| 20260507221532 | 73 | 205 | 2.6 | 7.8 | 0.00 | 0.00 | 0.00 | 30 | 1016.7 |
| 20260507214530 | 72 | 251 | 2.6 | 14.8 | 0.00 | 0.00 | 0.00 | 34 | 1017.0 |
| 20260507213031 | 72 | 292 | 4.3 | 14.8 | 0.00 | 0.00 | 0.00 | 35 | 1017.2 |
| 20260507211537 | 73 | 193 | 4.3 | 15.6 | 0.00 | 0.00 | 0.00 | 36 | 1017.2 |
| 20260507210031 | 73 | 204 | 7.0 | 16.5 | 0.00 | 0.00 | 0.00 | 37 | 1017.2 |
| 20260507204604 | 73 | 181 | 3.5 | 7.8 | 0.00 | 0.00 | 0.00 | 37 | 1017.5 |
| 20260507201532 | 72 | 194 | 4.3 | 13.9 | 0.00 | 0.00 | 0.00 | 38 | 1017.9 |
| 20260507200107 | 72 | 203 | 2.6 | 11.3 | 0.00 | 0.00 | 0.00 | 40 | 1018.0 |
| 20260507194529 | 72 | 259 | 3.5 | 13.0 | 0.00 | 0.00 | 0.00 | 40 | 1018.1 |
| 20260507193031 | 71 | 299 | 2.6 | 10.4 | 0.00 | 0.00 | 0.00 | 42 | 1018.3 |
| 20260507191605 | 69 | 340 | 2.6 | 11.3 | 0.00 | 0.00 | 0.00 | 43 | 1018.5 |
| 20260507190033 | 69 | 345 | 1.7 | 7.0 | 0.00 | 0.00 | 0.00 | 44 | 1018.8 |
| 20260507184532 | 67 | 358 | 3.5 | 7.0 | 0.00 | 0.00 | 0.00 | 46 | 1019.0 |
| 20260507181532 | 67 | 72 | 3.5 | 7.0 | 0.00 | 0.00 | 0.00 | 48 | 1019.1 |
| 20260507174533 | 66 | 135 | 3.5 | 6.1 | 0.00 | 0.00 | 0.00 | 50 | 1019.3 |
| 20260507171630 | 63 | 28 | 1.7 | 7.0 | 0.00 | 0.00 | 0.00 | 55 | 1019.7 |
| 20260507164532 | 62 | 326 | 1.7 | 7.8 | 0.00 | 0.00 | 0.00 | 57 | 1019.8 |
| 20260507163037 | 61 | 350 | 1.7 | 5.2 | 0.00 | 0.00 | 0.00 | 59 | 1019.9 |
| 20260507161532 | 60 | 255 | 1.7 | 7.0 | 0.00 | 0.00 | 0.00 | 61 | 1020.0 |
| 20260507160032 | 60 | 217 | 3.5 | 9.6 | 0.00 | 0.00 | 0.00 | 62 | 1020.1 |
| 20260507154529 | 59 | 320 | 1.7 | 5.2 | 0.00 | 0.00 | 0.00 | 65 | 1020.2 |
| 20260507153032 | 58 | 302 | 0.9 | 6.1 | 0.00 | 0.00 | 0.00 | 69 | 1020.3 |
| 20260507151531 | 56 | 352 | 2.6 | 7.0 | 0.00 | 0.00 | 0.00 | 71 | 1020.4 |
| 20260507150038 | 55 | 5 | 3.5 | 7.8 | 0.00 | 0.00 | 0.00 | 74 | 1020.4 |
| 20260507144607 | 52 | 48 | 1.7 | 7.8 | 0.00 | 0.00 | 0.00 | 82 | 1020.4 |
| 20260507143031 | 51 | 197 | 0.9 | 3.5 | 0.00 | 0.00 | 0.00 | 84 | 1020.4 |
| 20260507141530 | 50 | 178 | 0.9 | 3.5 | 0.00 | 0.00 | 0.00 | 86 | 1020.3 |